Location: Lake Sonoma
(38.7200°N, 123.0564°W)
Time: 01:55:04
(UTC-07:00)

ISS - All Passes

Search period start: 07 July 2015 00:00
Search period end: 17 July 2015 00:00
Orbit: 398 x 402 km, 51.6° (Epoch: 06 July)

Date Brightness Start Highest point End Pass type
(mag) Time Alt. Az. Time Alt. Az. Time Alt. Az.
07 Jul - 06:49:01 10° SSW 06:51:51 29° SE 06:54:44 10° ENE daylight
07 Jul - 08:25:20 10° W 08:28:14 29° NNW 08:31:07 10° NNE daylight
07 Jul - 10:05:19 10° NNW 10:05:28 10° N 10:05:35 10° N daylight
07 Jul - 13:17:30 10° NNW 13:20:20 27° NNE 13:23:11 10° E daylight
07 Jul - 14:53:49 10° WNW 14:56:44 31° SW 14:59:38 10° SSE daylight
08 Jul - 05:56:38 10° SSE 05:58:25 14° SE 06:00:18 10° E daylight
08 Jul - 07:31:21 10° WSW 07:34:32 52° NW 07:37:43 10° NE daylight
08 Jul - 09:09:58 10° NW 09:11:32 13° NNW 09:13:03 10° NNE daylight
08 Jul - 12:24:14 10° NNW 12:26:32 18° NNE 12:28:52 10° ENE daylight
08 Jul - 14:00:01 10° NW 14:03:14 69° SW 14:06:26 10° SE daylight
09 Jul - 06:37:42 10° SW 06:40:55 74° SE 06:44:10 10° NE daylight
09 Jul - 08:15:21 10° WNW 08:17:39 17° NNW 08:19:54 10° NNE daylight
09 Jul - 11:31:04 10° NNW 11:32:39 13° NNE 11:34:17 10° NE daylight
09 Jul - 13:06:26 10° NW 13:09:37 56° NE 13:12:48 10° ESE daylight
09 Jul - 14:44:01 10° W 14:45:43 13° SW 14:47:18 10° SSW daylight
10 Jul - 05:44:26 10° SSW 05:47:22 33° SE 05:50:22 10° ENE daylight
10 Jul - 07:21:00 10° W 07:23:48 26° NNW 07:26:37 10° NNE daylight
10 Jul - 10:38:17 10° N 10:38:41 10° N 10:39:08 10° NNE daylight
10 Jul - 12:12:59 10° NNW 12:15:54 30° NNE 12:18:50 10° E daylight
10 Jul - 13:49:27 10° WNW 13:52:14 27° SW 13:55:01 10° SSE daylight
11 Jul - 04:51:47 10° S 04:53:53 16° SE 04:56:04 10° E visible
11 Jul - 06:26:54 10° WSW 06:30:03 46° NW 06:33:12 10° NE daylight
11 Jul - 08:05:42 10° NW 08:07:05 12° NNW 08:08:26 10° N daylight
11 Jul - 11:19:39 10° NNW 11:22:04 19° NNE 11:24:32 10° ENE daylight
11 Jul - 12:55:31 10° WNW 12:58:42 58° SW 13:01:53 10° SE daylight
12 Jul - 05:33:08 10° SW 05:36:22 86° SE 05:39:37 10° NE daylight
12 Jul - 07:10:58 10° WNW 07:13:08 16° NNW 07:15:16 10° NNE daylight
12 Jul - 10:26:24 10° NNW 10:28:09 14° NNE 10:29:57 10° NE daylight
12 Jul - 12:01:51 10° NW 12:05:05 65° NE 12:08:17 10° ESE daylight
12 Jul - 13:39:54 10° WSW 13:41:06 11° SW 13:42:11 10° SSW daylight
13 Jul - 04:39:43 10° SSW 04:42:46 39° SE 04:45:49 10° ENE visible
13 Jul - 06:16:31 10° W 06:19:14 24° NNW 06:21:57 10° NNE daylight
13 Jul - 09:33:23 10° N 09:34:09 11° NNE 09:34:57 10° NNE daylight
13 Jul - 11:08:20 10° NW 11:11:19 34° NNE 11:14:19 10° E daylight
13 Jul - 12:44:56 10° WNW 12:47:37 23° SW 12:50:14 10° S daylight
14 Jul - 03:46:52 10° S 03:49:12 19° SE 03:51:37 10° E visible
14 Jul - 05:22:20 10° WSW 05:25:25 40° NNW 05:28:30 10° NE visible
14 Jul - 07:01:20 10° NW 07:02:30 11° NNW 07:03:39 10° N daylight
14 Jul - 10:14:55 10° NNW 10:17:27 21° NNE 10:20:02 10° ENE daylight
14 Jul - 11:50:53 10° WNW 11:54:02 50° SW 11:57:10 10° SSE daylight
15 Jul - 04:28:25 10° SW 04:31:40 82° NW 04:34:56 10° NE visible
15 Jul - 06:06:28 10° WNW 06:08:30 15° NNW 06:10:29 10° NNE daylight
15 Jul - 09:21:36 10° NNW 09:23:30 15° NNE 09:25:27 10° ENE daylight
15 Jul - 10:57:07 10° NW 11:00:22 75° NE 11:03:35 10° SE daylight
16 Jul - 03:34:53 10° SSW 03:38:00 45° SE 03:41:08 10° ENE visible
16 Jul - 05:11:54 10° W 05:14:32 22° NNW 05:17:09 10° NNE visible
16 Jul - 08:28:28 10° N 08:29:29 11° NNE 08:30:31 10° NNE daylight
16 Jul - 10:03:32 10° NW 10:06:35 37° NNE 10:09:39 10° ESE daylight
16 Jul - 11:40:18 10° W 11:42:49 20° SW 11:45:16 10° S daylight
